Weather in Margaritovo

Russia / Primorsky Krai     43°24′28″N   134°45′01″E
temp.,
°C
wind,
m/s
gust,
m/s
humid.,
%
clouds,
%
prec.,
mm/h
press.,
hPa
HPBL,
m
16 may, sun
sun1601:00+12nw229588 0.0 100717
04:00+12nne239098 0.0 1007136
07:00+12n2377100 0.0 1008131
10:00+14nne235395 0.0 1007336
13:00+20se2334100 0.0 10061124
16:00+15s2256100 0.0 1004304
19:00+13ssw0067100 0.0 100412
22:00+12nnw2270100 0.0 100433
17 may, mon
mon1701:00+12nnw3459100 0.0 100373
04:00+12nnw3657100 0.0 1002116
07:00+12nnw355868 0.0 100391
10:00+19n353247 0.0 10031763
13:00+22sse133098 0.0 10031976
16:00+19s4438100 0.0 1003796
19:00+16s1157100 0.0 100599
22:00+12nw2258100 0.0 100621
18 may, tue
tue1801:00+11nw32573 0.0 100729
04:00+11nw32500 0.0 100734
07:00+13nw22530 0.0 100737
10:00+22ssw23320 0.0 1007835
13:00+24ssw46303 0.0 10061792
16:00+22ssw48373 0.0 1005998
19:00+18sw31052100 0.0 1006431
22:00+12wsw1169100 0.0 100818
19 may, wed
wed1901:00+11w227365 0.0 100817
04:00+10wnw22752 0.0 100823
07:00+12w12650 0.0 100854
10:00+21ssw23403 0.0 1008454
13:00+23s344333 0.0 1008662
16:00+22s35480 0.0 1007463
19:00+18s22710 0.0 1008107
22:00+13wnw11870 0.0 101114
20 may, thu
thu2001:00+13w2284100 0.0 101115
04:00+12wnw1184100 0.1 101111
07:00+14wsw1177100 0.1 101217
10:00+18ssw1260100 0.3 1012222
13:00+21s3749100 0.1 1012634
16:00+20ssw3750100 0.1 1011521
19:00+15s2277100 0.0 101143
22:00+14nw1172100 0.0 101110